This is the latest recevied weather packets stored in our database for station/object SV9TNF-57. If no packets are shown the sender has not sent any weather packets the latest 10 day(s).
| Time | Temp. | Humidity | Pressure | Rain* | Wind** | Luminosity | Snow |
|---|---|---|---|---|---|---|---|
| 1788647275 | 25.56° C | 62% | 997.2 hPa | 0 mm | 0 m/s | - | - |
| 1788646974 | 25.56° C | 63% | 997.3 hPa | 0 mm | 0 m/s | - | - |
| 1788646675 | 25.56° C | 64% | 997.4 hPa | 0 mm | 0 m/s | - | - |
| 1788646374 | 25.56° C | 64% | 997.4 hPa | 0 mm | 0 m/s | - | - |
| 1788646074 | 25.56° C | 64% | 997.5 hPa | 0 mm | 0 m/s | - | - |
| 1788645774 | 25.56° C | 66% | 997.3 hPa | 0 mm | 0 m/s | - | - |
| 1788645474 | 26.11° C | 65% | 997.4 hPa | 0 mm | 0 m/s | - | - |
| 1788645174 | 26.11° C | 63% | 997.5 hPa | 0 mm | 0 m/s | - | - |
| 1788644874 | 26.67° C | 62% | 997.6 hPa | 0 mm | 0 m/s | - | - |
| 1788644574 | 26.11° C | 62% | 997.4 hPa | 0 mm | 0 m/s | - | - |
| 1788644274 | 26.11° C | 61% | 997.4 hPa | 0 mm | 0 m/s | - | - |
| 1788643973 | 26.11° C | 60% | 997.6 hPa | 0 mm | 0 m/s | - | - |
| 1788643673 | 26.11° C | 60% | 997.5 hPa | 0 mm | 0 m/s | - | - |
| 1788643373 | 26.11° C | 59% | 997.5 hPa | 0 mm | 0 m/s | - | - |
| 1788643073 | 26.11° C | 54% | 997.6 hPa | 0 mm | 0 m/s | - | - |
| 1788642773 | 26.11° C | 49% | 997.7 hPa | 0 mm | 0 m/s | - | - |
| 1788642473 | 25.56° C | 49% | 997.6 hPa | 0 mm | 0.45 m/s, 292° | - | - |
| 1788642173 | 25.56° C | 49% | 997.9 hPa | 0 mm | 0.45 m/s, 304° | - | - |
| 1788641873 | 26.11° C | 48% | 997.9 hPa | 0 mm | 0.45 m/s, 323° | - | - |
| 1788641572 | 25.56° C | 48% | 997.7 hPa | 0 mm | 0.45 m/s, 275° | - | - |
| 1788641273 | 25.56° C | 48% | 997.8 hPa | 0 mm | 0 m/s | - | - |
| 1788640972 | 25.56° C | 48% | 997.9 hPa | 0 mm | 0 m/s | - | - |
| 1788640673 | 25.56° C | 49% | 997.8 hPa | 0 mm | 2.24 m/s, 262° | - | - |
| 1788640372 | 26.11° C | 48% | 997.8 hPa | 0 mm | 0 m/s | - | - |
| 1788640072 | 26.11° C | 47% | 997.9 hPa | 0 mm | 0.89 m/s, 293° | - | - |
* Rain latest hour (hover to see other rain measurements)
** Current wind speed in m/s (hover to see current wind gust speed)